Find Starlink 11409

NORAD ID: 63061 Int'l Des: 2025-035 Owner: SPXS Country: US Constellation: starlink operational
別名: STARLINK-11409 [DTC] celestrak
LEOCIRCULAR

現在のビュー

3D地球を読み込み中...

About Starlink 11409

Starlink 11409 (NORAD 63061) is a starlink constellation satellite (v2 mini d2c) launched Feb 21, 2025 by SPXS of US. It operates in LEO, CIRCULAR orbit with a mass of 960.00 kg.

次回通過

Passes for default location (London). Set your location on the main map for personalized predictions.

高度履歴

Loading altitude history...

軌道要素

1 63061U 25035K 26263.34767259 .00188474 00000-0 14375-2 0 9997
2 63061 42.9996 282.1724 0000790 247.0189 113.0595 15.70869791 91838
Epoch: Sep 20, 2026 • Age: 17 hours

現在のステータス

高度 358.9 km
遠地点 / 近地点 N/A
速度 7.70 km/s
衛星直下点 41.66°N, 2.81°E
打ち上げ日 Feb 21, 2025
運用期間 1.5 years
タイプ internet

技術仕様

分類 Payload
質量 960.00 kg
乾燥質量 910.00 kg
長さ 0.30 m
スパン 29.00 m
形状 ? Box + pan
製造者 SPXS
バスタイプ Starlink V2MD
フェーズステータス In Orbit
所有者/国 SPXS/US

Most Searched